TimeCST,TemperatureF,Dew PointF,Humidity,Sea Level PressureIn,VisibilityMPH,Wind Direction,Wind SpeedMPH,Gust SpeedMPH,PrecipitationIn,Events,Conditions,WindDirDegrees,DateUTC
12:00 AM,82,78,85,29.93,12,East,5.8,,,,Mostly Cloudy,90,2012-09-26 06:00:00
3:00 AM,78,76,94,29.88,12,Calm,Calm,,,,Partly Cloudy,,2012-09-26 09:00:00
5:00 AM,80.6,77.0,89,29.89,6.2,ESE,5.8,-,N/A,,Scattered Clouds,110,2012-09-26 11:00:00
6:00 AM,80.6,77.0,89,29.89,6.2,ESE,5.8,-,N/A,,Mostly Cloudy,110,2012-09-26 12:00:00
7:00 AM,84.2,77.0,79,29.92,6.2,ESE,5.8,-,N/A,,Mostly Cloudy,110,2012-09-26 13:00:00
8:00 AM,86.0,77.0,74,29.92,6.2,ESE,9.2,-,N/A,,Mostly Cloudy,110,2012-09-26 14:00:00
9:00 AM,87,77,65,29.96,12,East,11.5,,,,Partly Cloudy,100,2012-09-26 15:00:00
9:00 AM,86.0,77.0,74,29.95,6.2,East,11.5,-,N/A,,Mostly Cloudy,100,2012-09-26 15:00:00
10:00 AM,86.0,77.0,74,29.95,6.2,East,11.5,-,N/A,,Mostly Cloudy,100,2012-09-26 16:00:00
11:00 AM,87.8,77.0,70,29.94,6.2,East,11.5,-,N/A,,Mostly Cloudy,90,2012-09-26 17:00:00
12:00 PM,88,77,62,29.93,12,East,13.8,,,,Partly Cloudy,100,2012-09-26 18:00:00
12:00 PM,87.8,77.0,70,29.92,6.2,East,13.8,-,N/A,,Mostly Cloudy,100,2012-09-26 18:00:00
1:00 PM,89.6,77.0,66,29.90,6.2,East,10.4,-,N/A,,Mostly Cloudy,90,2012-09-26 19:00:00
2:00 PM,86.0,77.0,74,29.89,6.2,East,11.5,-,N/A,,Mostly Cloudy,90,2012-09-26 20:00:00
3:00 PM,87,77,64,29.89,12,East,12.7,,,,Partly Cloudy,90,2012-09-26 21:00:00
3:00 PM,87.8,77.0,70,29.88,6.2,East,12.7,-,N/A,,Mostly Cloudy,90,2012-09-26 21:00:00
4:00 PM,82.4,75.2,79,29.88,6.2,East,6.9,-,N/A,,Mostly Cloudy,80,2012-09-26 22:00:00
5:00 PM,84.2,77.0,79,29.89,6.2,East,9.2,-,N/A,Rain,Light Rain Showers,80,2012-09-26 23:00:00
6:00 PM,82,76,79,29.91,12,East,6.9,,,,Partly Cloudy,90,2012-09-27 00:00:00
6:00 PM,82.4,77.0,84,29.89,6.2,East,6.9,-,N/A,,Mostly Cloudy,90,2012-09-27 00:00:00
9:00 PM,83,76,75,29.99,12,East,8.1,,,,Scattered Clouds,100,2012-09-27 03:00:00